| time (UTC) | temp F | wind direction | speed MPH | gust MPH | rain 1hr in | rain 24hr in | rain mn in | humidity % | barometer mb |
| 20260904144003 | 66 | 147 | 1.0 | 1.0 | 0.00 | 0.10 | 0.10 | 99 | 4102.4 |
| 20260904143458 | 66 | 128 | 1.0 | 1.0 | 0.00 | 0.10 | 0.10 | 99 | 4102.7 |
| 20260904142955 | 66 | 137 | 1.0 | 2.0 | 0.00 | 0.10 | 0.10 | 99 | 4102.4 |
| 20260904142451 | 66 | 134 | 1.0 | 2.0 | 0.00 | 0.10 | 0.10 | 99 | 4102.4 |
| 20260904141950 | 66 | 114 | 0.0 | 0.0 | 0.00 | 0.10 | 0.10 | 99 | 4102.4 |
| 20260904141445 | 66 | 146 | 2.0 | 2.0 | 0.00 | 0.10 | 0.10 | 99 | 4102.1 |
| 20260904140942 | 65 | 117 | 2.0 | 3.0 | 0.00 | 0.10 | 0.10 | 99 | 4102.1 |
| 20260904140441 | 66 | 141 | 0.0 | 0.0 | 0.00 | 0.10 | 0.10 | 99 | 4102.1 |
| 20260904135941 | 65 | 152 | 1.0 | 2.0 | 0.00 | 0.10 | 0.10 | 99 | 4101.7 |
| 20260904135440 | 65 | 129 | 1.0 | 2.0 | 0.00 | 0.10 | 0.10 | 99 | 4101.7 |
| 20260904134936 | 65 | 140 | 0.0 | 0.0 | 0.00 | 0.10 | 0.10 | 99 | 4102.1 |
| 20260904134431 | 64 | 119 | 1.0 | 2.0 | 0.00 | 0.10 | 0.10 | 99 | 4101.7 |
| 20260904133925 | 65 | 100 | 0.0 | 1.0 | 0.00 | 0.10 | 0.10 | 99 | 4102.1 |
| 20260904133421 | 65 | 130 | 1.0 | 2.0 | 0.00 | 0.10 | 0.10 | 99 | 4102.1 |
| 20260904132916 | 64 | 118 | 1.0 | 2.0 | 0.00 | 0.10 | 0.10 | 99 | 4102.1 |
| 20260904132411 | 64 | 118 | 3.0 | 3.0 | 0.00 | 0.10 | 0.10 | 99 | 4101.7 |
| 20260904131910 | 65 | 141 | 0.0 | 1.0 | 0.00 | 0.10 | 0.10 | 99 | 4101.7 |
| 20260904131406 | 65 | 114 | 1.0 | 2.0 | 0.00 | 0.10 | 0.10 | 99 | 4101.7 |
| 20260904130901 | 65 | 100 | 0.0 | 0.0 | 0.00 | 0.10 | 0.10 | 99 | 4101.7 |
| 20260904130400 | 64 | 140 | 1.0 | 1.0 | 0.00 | 0.10 | 0.10 | 99 | 4101.7 |
| 20260904125855 | 63 | 137 | 0.0 | 0.0 | 0.00 | 0.10 | 0.10 | 99 | 4101.7 |
| 20260904125352 | 63 | 78 | 0.0 | 0.0 | 0.00 | 0.10 | 0.10 | 99 | 4101.7 |
| 20260904124850 | 63 | 141 | 0.0 | 0.0 | 0.00 | 0.10 | 0.10 | 99 | 4101.4 |
| 20260904124348 | 63 | 120 | 0.0 | 0.0 | 0.00 | 0.10 | 0.10 | 99 | 4101.1 |
| 20260904123843 | 63 | 123 | 0.0 | 0.0 | 0.00 | 0.10 | 0.10 | 99 | 4101.1 |
| 20260904123338 | 62 | 122 | 0.0 | 0.0 | 0.00 | 0.10 | 0.10 | 99 | 4101.4 |
| 20260904122833 | 62 | 123 | 0.0 | 0.0 | 0.00 | 0.10 | 0.10 | 99 | 4101.4 |
| 20260904122332 | 62 | 119 | 0.0 | 0.0 | 0.00 | 0.10 | 0.10 | 99 | 4101.4 |
| 20260904121827 | 62 | 119 | 0.0 | 0.0 | 0.00 | 0.10 | 0.10 | 99 | 4102.1 |
| 20260904121324 | 62 | 118 | 0.0 | 1.0 | 0.00 | 0.10 | 0.10 | 99 | 4102.1 |
| 20260904120820 | 62 | 124 | 0.0 | 0.0 | 0.00 | 0.10 | 0.10 | 99 | 4102.1 |
| 20260904120315 | 62 | 125 | 0.0 | 0.0 | 0.00 | 0.10 | 0.10 | 99 | 4101.4 |
| 20260904115810 | 61 | 125 | 0.0 | 0.0 | 0.05 | 0.10 | 0.10 | 99 | 4101.1 |
| 20260904115307 | 61 | 125 | 0.0 | 0.0 | 0.05 | 0.10 | 0.10 | 99 | 4101.1 |
| 20260904114806 | 61 | 125 | 0.0 | 0.0 | 0.05 | 0.10 | 0.10 | 99 | 4101.1 |
| 20260904114300 | 61 | 125 | 0.0 | 0.0 | 0.04 | 0.09 | 0.09 | 99 | 4101.1 |
| 20260904113755 | 61 | 127 | 0.0 | 0.0 | 0.04 | 0.09 | 0.09 | 99 | 4101.1 |
| 20260904113254 | 61 | 127 | 0.0 | 0.0 | 0.04 | 0.09 | 0.09 | 99 | 4101.1 |
| 20260904112749 | 61 | 127 | 0.0 | 0.0 | 0.04 | 0.09 | 0.09 | 99 | 4101.1 |
| 20260904112245 | 61 | 127 | 0.0 | 0.0 | 0.04 | 0.09 | 0.09 | 99 | 4101.4 |
| 20260904111741 | 61 | 129 | 0.0 | 1.0 | 0.04 | 0.09 | 0.09 | 99 | 4101.4 |
| 20260904111236 | 61 | 134 | 0.0 | 0.0 | 0.03 | 0.08 | 0.08 | 99 | 4101.7 |
| 20260904110732 | 61 | 135 | 0.0 | 0.0 | 0.03 | 0.08 | 0.08 | 99 | 4101.7 |
| 20260904110231 | 61 | 134 | 0.0 | 0.0 | 0.01 | 0.06 | 0.06 | 99 | 4102.1 |
| 20260904105726 | 62 | 135 | 0.0 | 0.0 | 0.04 | 0.04 | 0.04 | 99 | 4102.1 |
| 20260904105221 | 62 | 135 | 0.0 | 0.0 | 0.02 | 0.02 | 0.02 | 99 | 4102.1 |
| 20260904104716 | 62 | 147 | 0.0 | 0.0 | 0.00 | 0.00 | 0.00 | 99 | 4102.1 |
| 20260904104211 | 62 | 138 | 0.0 | 0.0 | 0.00 | 0.00 | 0.00 | 99 | 4102.1 |
| 20260904103709 | 62 | 138 | 0.0 | 0.0 | 0.00 | 0.00 | 0.00 | 99 | 4102.4 |
| 20260904103203 | 62 | 178 | 0.0 | 0.0 | 0.00 | 0.00 | 0.00 | 99 | 4102.1 |
| 20260904102659 | 61 | 146 | 1.0 | 2.0 | 0.00 | 0.00 | 0.00 | 99 | 4102.1 |
| 20260904102154 | 61 | 62 | 0.0 | 0.0 | 0.00 | 0.00 | 0.00 | 99 | 4102.1 |
| 20260904101651 | 61 | 62 | 0.0 | 0.0 | 0.00 | 0.00 | 0.00 | 99 | 4102.1 |
| 20260904101146 | 61 | 54 | 0.0 | 1.0 | 0.00 | 0.00 | 0.00 | 99 | 4101.7 |
| 20260904100642 | 61 | 54 | 0.0 | 0.0 | 0.00 | 0.00 | 0.00 | 99 | 4101.7 |
| 20260904100137 | 60 | 54 | 0.0 | 1.0 | 0.00 | 0.00 | 0.00 | 99 | 4101.4 |
| 20260904095636 | 60 | 54 | 0.0 | 0.0 | 0.00 | 0.00 | 0.00 | 99 | 4101.4 |
| 20260904095131 | 60 | 52 | 1.0 | 1.0 | 0.00 | 0.00 | 0.00 | 99 | 4101.4 |
| 20260904094626 | 60 | 45 | 0.0 | 0.0 | 0.00 | 0.00 | 0.00 | 99 | 4101.4 |
| 20260904094121 | 60 | 33 | 0.0 | 1.0 | 0.00 | 0.00 | 0.00 | 99 | 4101.4 |
| 20260904093618 | 60 | 88 | 0.0 | 1.0 | 0.00 | 0.00 | 0.00 | 99 | 4101.4 |
| 20260904093113 | 60 | 75 | 1.0 | 1.0 | 0.00 | 0.00 | 0.00 | 99 | 4101.1 |
| 20260904092609 | 60 | 53 | 0.0 | 1.0 | 0.00 | 0.00 | 0.00 | 99 | 4101.1 |
| 20260904092105 | 60 | 252 | 0.0 | 1.0 | 0.00 | 0.00 | 0.00 | 99 | 4101.1 |
| 20260904091601 | 60 | 196 | 0.0 | 1.0 | 0.00 | 0.00 | 0.00 | 99 | 4101.1 |
| 20260904091100 | 60 | 200 | 1.0 | 1.0 | 0.00 | 0.00 | 0.00 | 99 | 4101.1 |
| 20260904090556 | 60 | 204 | 1.0 | 1.0 | 0.00 | 0.00 | 0.00 | 99 | 4101.1 |
| 20260904090052 | 60 | 207 | 0.0 | 0.0 | 0.00 | 0.00 | 0.00 | 99 | 4101.1 |
| 20260904085552 | 60 | 209 | 0.0 | 0.0 | 0.00 | 0.00 | 0.00 | 99 | 4100.7 |
| 20260904085051 | 60 | 211 | 0.0 | 0.0 | 0.00 | 0.00 | 0.00 | 99 | 4100.7 |
| 20260904084547 | 60 | 192 | 0.0 | 1.0 | 0.00 | 0.00 | 0.00 | 99 | 4100.7 |
| 20260904084043 | 60 | 192 | 0.0 | 0.0 | 0.00 | 0.00 | 0.00 | 99 | 4100.4 |
| 20260904083539 | 60 | 192 | 1.0 | 1.0 | 0.00 | 0.00 | 0.00 | 99 | 4100.7 |
| 20260904083035 | 60 | 197 | 0.0 | 0.0 | 0.00 | 0.00 | 0.00 | 99 | 4101.1 |
| 20260904082530 | 60 | 196 | 0.0 | 0.0 | 0.00 | 0.00 | 0.00 | 99 | 4101.1 |
| 20260904082025 | 60 | 196 | 0.0 | 0.0 | 0.00 | 0.00 | 0.00 | 99 | 4101.1 |
| 20260904081520 | 60 | 192 | 0.0 | 0.0 | 0.00 | 0.00 | 0.00 | 99 | 4100.7 |
| 20260904081016 | 60 | 193 | 0.0 | 0.0 | 0.00 | 0.00 | 0.00 | 99 | 4101.1 |
| 20260904080511 | 60 | 195 | 0.0 | 0.0 | 0.00 | 0.00 | 0.00 | 99 | 4101.1 |
| 20260904080007 | 60 | 194 | 0.0 | 0.0 | 0.00 | 0.00 | 0.00 | 99 | 4100.7 |
| 20260904075503 | 60 | 196 | 1.0 | 1.0 | 0.00 | 0.00 | 0.00 | 99 | 4101.1 |
| 20260904075003 | 60 | 195 | 0.0 | 1.0 | 0.00 | 0.00 | 0.00 | 99 | 4101.1 |
| 20260904074457 | 60 | 193 | 1.0 | 1.0 | 0.00 | 0.00 | 0.00 | 99 | 4100.7 |
| 20260904073952 | 59 | 193 | 1.0 | 1.0 | 0.00 | 0.00 | 0.00 | 99 | 4100.7 |
| 20260904073447 | 59 | 194 | 0.0 | 0.0 | 0.00 | 0.00 | 0.00 | 99 | 4100.7 |
| 20260904072943 | 60 | 194 | 0.0 | 0.0 | 0.00 | 0.00 | 0.00 | 99 | 4101.1 |
| 20260904072439 | 60 | 194 | 0.0 | 1.0 | 0.00 | 0.00 | 0.00 | 99 | 4101.1 |
| 20260904071938 | 59 | 194 | 0.0 | 0.0 | 0.00 | 0.00 | 0.00 | 99 | 4101.1 |
| 20260904071435 | 59 | 194 | 0.0 | 0.0 | 0.00 | 0.00 | 0.00 | 99 | 4100.7 |
| 20260904070929 | 59 | 206 | 2.0 | 2.0 | 0.00 | 0.00 | 0.00 | 99 | 4100.7 |
| 20260904070427 | 59 | 191 | 1.0 | 1.0 | 0.00 | 0.00 | 0.00 | 99 | 4100.7 |
| 20260904065922 | 59 | 193 | 1.0 | 1.0 | 0.00 | 0.00 | 0.00 | 99 | 4100.7 |
| 20260904065419 | 59 | 194 | 1.0 | 1.0 | 0.00 | 0.00 | 0.00 | 99 | 4100.7 |
| 20260904064918 | 59 | 194 | 0.0 | 1.0 | 0.00 | 0.00 | 0.00 | 99 | 4101.1 |
| 20260904064415 | 59 | 194 | 0.0 | 0.0 | 0.00 | 0.00 | 0.00 | 99 | 4101.1 |
| 20260904063910 | 59 | 194 | 0.0 | 0.0 | 0.00 | 0.00 | 0.00 | 99 | 4101.1 |
| 20260904063407 | 59 | 194 | 0.0 | 0.0 | 0.00 | 0.00 | 0.00 | 99 | 4101.1 |
| 20260904062901 | 59 | 194 | 0.0 | 0.0 | 0.00 | 0.00 | 0.00 | 99 | 4101.4 |
| 20260904062357 | 59 | 194 | 0.0 | 0.0 | 0.00 | 0.00 | 0.00 | 99 | 4101.4 |
| 20260904061853 | 59 | 194 | 1.0 | 1.0 | 0.00 | 0.00 | 0.00 | 99 | 4101.4 |
| 20260904061349 | 59 | 194 | 0.0 | 0.0 | 0.00 | 0.00 | 0.00 | 99 | 4101.7 |
| 20260904060845 | 60 | 194 | 0.0 | 0.0 | 0.00 | 0.00 | 0.00 | 99 | 4101.7 |
| 20260904060341 | 60 | 194 | 0.0 | 0.0 | 0.00 | 0.00 | 0.00 | 99 | 4101.7 |
| 20260904055835 | 60 | 194 | 0.0 | 0.0 | 0.00 | 0.00 | 0.00 | 99 | 4102.1 |
| 20260904055331 | 60 | 194 | 0.0 | 0.0 | 0.00 | 0.00 | 0.00 | 99 | 4101.7 |
| 20260904054826 | 60 | 194 | 0.0 | 0.0 | 0.00 | 0.00 | 0.00 | 99 | 4101.7 |
| 20260904054322 | 61 | 194 | 0.0 | 0.0 | 0.00 | 0.00 | 0.00 | 99 | 4101.7 |
| 20260904053818 | 61 | 195 | 0.0 | 0.0 | 0.00 | 0.00 | 0.00 | 99 | 4101.7 |
| 20260904053317 | 61 | 194 | 0.0 | 0.0 | 0.00 | 0.00 | 0.00 | 99 | 4101.7 |
| 20260904052813 | 61 | 194 | 0.0 | 0.0 | 0.00 | 0.00 | 0.00 | 99 | 4101.7 |
| 20260904052309 | 60 | 194 | 0.0 | 0.0 | 0.00 | 0.00 | 0.00 | 99 | 4102.1 |
| 20260904051806 | 60 | 194 | 0.0 | 0.0 | 0.00 | 0.00 | 0.00 | 99 | 4102.1 |
| 20260904051301 | 61 | 194 | 0.0 | 0.0 | 0.00 | 0.00 | 0.00 | 99 | 4101.7 |
| 20260904050756 | 61 | 194 | 0.0 | 0.0 | 0.00 | 0.00 | 0.00 | 99 | 4101.7 |
| 20260904050252 | 61 | 194 | 0.0 | 0.0 | 0.00 | 0.00 | 0.00 | 99 | 4101.7 |
| 20260904045747 | 61 | 194 | 0.0 | 0.0 | 0.00 | 0.00 | 0.00 | 99 | 4101.7 |
| 20260904045241 | 61 | 194 | 0.0 | 0.0 | 0.00 | 0.00 | 0.00 | 99 | 4102.1 |
| 20260904044736 | 61 | 194 | 0.0 | 0.0 | 0.00 | 0.00 | 0.00 | 99 | 4101.7 |
| 20260904044233 | 61 | 194 | 0.0 | 0.0 | 0.00 | 0.00 | 0.00 | 99 | 4101.7 |
| 20260904043729 | 61 | 194 | 0.0 | 0.0 | 0.00 | 0.00 | 0.00 | 99 | 4101.7 |
| 20260904043225 | 61 | 194 | 0.0 | 0.0 | 0.00 | 0.00 | 0.00 | 99 | 4101.7 |
| 20260904042720 | 61 | 194 | 0.0 | 0.0 | 0.00 | 0.00 | 0.00 | 99 | 4101.7 |
| 20260904042217 | 61 | 194 | 0.0 | 0.0 | 0.00 | 0.00 | 0.00 | 99 | 4102.1 |
| 20260904041715 | 61 | 194 | 0.0 | 0.0 | 0.00 | 0.00 | 0.00 | 99 | 4101.7 |
| 20260904041212 | 61 | 194 | 0.0 | 0.0 | 0.00 | 0.00 | 0.00 | 99 | 4102.1 |
| 20260904040708 | 61 | 194 | 0.0 | 0.0 | 0.00 | 0.00 | 0.00 | 99 | 4101.7 |
| 20260904040204 | 61 | 194 | 0.0 | 0.0 | 0.00 | 0.00 | 0.00 | 99 | 4101.7 |
| 20260904035659 | 61 | 194 | 0.0 | 1.0 | 0.00 | 0.00 | 0.00 | 99 | 4102.1 |
| 20260904035154 | 61 | 194 | 0.0 | 1.0 | 0.00 | 0.00 | 0.00 | 99 | 4101.7 |
| 20260904034653 | 60 | 194 | 1.0 | 1.0 | 0.00 | 0.00 | 0.00 | 99 | 4101.7 |
| 20260904034149 | 61 | 194 | 1.0 | 1.0 | 0.00 | 0.00 | 0.00 | 99 | 4101.7 |
| 20260904033645 | 61 | 194 | 1.0 | 1.0 | 0.00 | 0.00 | 0.00 | 99 | 4102.1 |
| 20260904033142 | 61 | 194 | 1.0 | 1.0 | 0.00 | 0.00 | 0.00 | 99 | 4101.7 |
| 20260904032637 | 61 | 194 | 1.0 | 1.0 | 0.00 | 0.00 | 0.00 | 99 | 4101.7 |
| 20260904032136 | 61 | 194 | 1.0 | 1.0 | 0.00 | 0.00 | 0.00 | 99 | 4101.7 |
| 20260904031636 | 61 | 194 | 1.0 | 2.0 | 0.00 | 0.00 | 0.00 | 99 | 4101.4 |
| 20260904031132 | 61 | 194 | 1.0 | 2.0 | 0.00 | 0.00 | 0.00 | 99 | 4101.4 |
| 20260904030627 | 61 | 193 | 2.0 | 2.0 | 0.00 | 0.00 | 0.00 | 99 | 4101.4 |
| 20260904030122 | 61 | 194 | 1.0 | 2.0 | 0.00 | 0.00 | 0.00 | 99 | 4101.4 |
| 20260904025618 | 61 | 194 | 1.0 | 2.0 | 0.00 | 0.00 | 0.00 | 99 | 4101.4 |
| 20260904025113 | 61 | 193 | 2.0 | 2.0 | 0.00 | 0.00 | 0.00 | 99 | 4101.4 |
| 20260904024608 | 61 | 194 | 2.0 | 2.0 | 0.00 | 0.00 | 0.00 | 99 | 4101.4 |
| 20260904024104 | 61 | 194 | 2.0 | 2.0 | 0.00 | 0.00 | 0.00 | 99 | 4101.4 |
| 20260904023600 | 62 | 194 | 1.0 | 2.0 | 0.00 | 0.00 | 0.00 | 99 | 4101.4 |
| 20260904023055 | 62 | 194 | 1.0 | 1.0 | 0.00 | 0.00 | 0.00 | 99 | 4101.4 |
| 20260904022550 | 62 | 194 | 1.0 | 1.0 | 0.00 | 0.00 | 0.00 | 99 | 4101.4 |
| 20260904022047 | 62 | 194 | 1.0 | 1.0 | 0.00 | 0.00 | 0.00 | 99 | 4101.4 |
| 20260904021542 | 62 | 194 | 1.0 | 1.0 | 0.00 | 0.00 | 0.00 | 99 | 4101.4 |
| 20260904021037 | 62 | 195 | 1.0 | 1.0 | 0.00 | 0.00 | 0.00 | 99 | 4101.4 |
| 20260904020532 | 62 | 194 | 1.0 | 1.0 | 0.00 | 0.00 | 0.00 | 99 | 4101.4 |
| 20260904020027 | 63 | 194 | 1.0 | 1.0 | 0.00 | 0.00 | 0.00 | 99 | 4101.7 |
| 20260904015521 | 63 | 195 | 1.0 | 1.0 | 0.00 | 0.00 | 0.00 | 99 | 4101.4 |
| 20260904015020 | 63 | 195 | 1.0 | 1.0 | 0.00 | 0.00 | 0.00 | 99 | 4101.1 |
| 20260904014514 | 63 | 195 | 1.0 | 1.0 | 0.00 | 0.00 | 0.00 | 99 | 4101.4 |
| 20260904014010 | 63 | 194 | 1.0 | 2.0 | 0.00 | 0.00 | 0.00 | 99 | 4101.4 |
| 20260904013506 | 63 | 195 | 0.0 | 1.0 | 0.00 | 0.00 | 0.00 | 99 | 4101.4 |
| 20260904013002 | 63 | 194 | 1.0 | 2.0 | 0.00 | 0.00 | 0.00 | 99 | 4101.4 |
| 20260904012502 | 64 | 194 | 1.0 | 1.0 | 0.00 | 0.00 | 0.00 | 99 | 4101.1 |
| 20260904011950 | 64 | 195 | 1.0 | 1.0 | 0.00 | 0.00 | 0.00 | 99 | 4101.1 |
| 20260904011446 | 64 | 195 | 1.0 | 1.0 | 0.00 | 0.00 | 0.00 | 99 | 4100.7 |
| 20260904010941 | 64 | 195 | 1.0 | 1.0 | 0.00 | 0.00 | 0.00 | 99 | 4101.1 |
| 20260904010437 | 64 | 195 | 1.0 | 1.0 | 0.00 | 0.00 | 0.00 | 99 | 4101.1 |
| 20260904005932 | 65 | 195 | 0.0 | 0.0 | 0.00 | 0.00 | 0.00 | 99 | 4100.7 |
| 20260904005428 | 65 | 195 | 0.0 | 0.0 | 0.00 | 0.00 | 0.00 | 99 | 4100.7 |
| 20260904004928 | 65 | 195 | 0.0 | 0.0 | 0.00 | 0.00 | 0.00 | 99 | 4100.7 |
| 20260904004424 | 65 | 195 | 0.0 | 0.0 | 0.00 | 0.00 | 0.00 | 98 | 4100.7 |
| 20260904003919 | 65 | 196 | 0.0 | 0.0 | 0.00 | 0.00 | 0.00 | 97 | 4100.7 |
| 20260904003414 | 65 | 196 | 0.0 | 0.0 | 0.00 | 0.00 | 0.00 | 97 | 4100.4 |
| 20260904002910 | 66 | 196 | 0.0 | 0.0 | 0.00 | 0.00 | 0.00 | 96 | 4100.4 |
| 20260904002407 | 66 | 196 | 0.0 | 0.0 | 0.00 | 0.00 | 0.00 | 94 | 4100.4 |
| 20260904001904 | 66 | 196 | 0.0 | 0.0 | 0.00 | 0.00 | 0.00 | 93 | 4100.4 |
| 20260904001401 | 67 | 196 | 0.0 | 0.0 | 0.00 | 0.00 | 0.00 | 93 | 4100.4 |
| 20260904000855 | 67 | 196 | 0.0 | 0.0 | 0.00 | 0.00 | 0.00 | 93 | 4100.4 |
| 20260904000355 | 68 | 196 | 0.0 | 0.0 | 0.00 | 0.00 | 0.00 | 92 | 4100.4 |
| 20260903235855 | 68 | 196 | 0.0 | 0.0 | 0.00 | 0.00 | 0.00 | 91 | 4100.4 |
| 20260903235351 | 69 | 196 | 0.0 | 0.0 | 0.00 | 0.00 | 0.00 | 90 | 4100.4 |
| 20260903234850 | 69 | 196 | 0.0 | 0.0 | 0.00 | 0.00 | 0.00 | 89 | 4100.4 |
| 20260903234346 | 69 | 195 | 0.0 | 0.0 | 0.00 | 0.00 | 0.00 | 87 | 4100.0 |
| 20260903233842 | 70 | 195 | 0.0 | 0.0 | 0.00 | 0.00 | 0.00 | 86 | 4100.0 |
| 20260903233338 | 71 | 195 | 0.0 | 0.0 | 0.00 | 0.00 | 0.00 | 84 | 4100.0 |
| 20260903232837 | 71 | 195 | 0.0 | 0.0 | 0.00 | 0.00 | 0.00 | 83 | 4100.0 |
| 20260903232333 | 71 | 195 | 0.0 | 0.0 | 0.00 | 0.00 | 0.00 | 82 | 4100.0 |
| 20260903231832 | 72 | 195 | 0.0 | 0.0 | 0.00 | 0.00 | 0.00 | 81 | 4100.0 |
| 20260903231328 | 72 | 195 | 0.0 | 0.0 | 0.00 | 0.00 | 0.00 | 80 | 4100.0 |
| 20260903230823 | 73 | 195 | 0.0 | 0.0 | 0.00 | 0.00 | 0.00 | 79 | 4100.0 |
| 20260903230318 | 73 | 195 | 0.0 | 0.0 | 0.00 | 0.00 | 0.00 | 77 | 4099.7 |
| 20260903225814 | 74 | 196 | 0.0 | 0.0 | 0.00 | 0.00 | 0.00 | 75 | 4099.7 |
| 20260903225310 | 75 | 196 | 0.0 | 0.0 | 0.00 | 0.00 | 0.00 | 73 | 4099.7 |
| 20260903224806 | 75 | 196 | 0.0 | 0.0 | 0.00 | 0.00 | 0.00 | 73 | 4099.4 |
| 20260903224302 | 75 | 196 | 0.0 | 0.0 | 0.00 | 0.00 | 0.00 | 72 | 4099.4 |
| 20260903223758 | 75 | 194 | 0.0 | 0.0 | 0.00 | 0.00 | 0.00 | 72 | 4099.4 |
| 20260903223256 | 76 | 195 | 0.0 | 0.0 | 0.00 | 0.00 | 0.00 | 71 | 4099.4 |
| 20260903222751 | 76 | 198 | 1.0 | 2.0 | 0.00 | 0.00 | 0.00 | 70 | 4099.4 |
| 20260903222250 | 77 | 189 | 1.0 | 1.0 | 0.00 | 0.00 | 0.00 | 70 | 4099.0 |
| 20260903221745 | 78 | 192 | 1.0 | 2.0 | 0.00 | 0.00 | 0.00 | 71 | 4099.4 |
| 20260903221244 | 79 | 193 | 1.0 | 1.0 | 0.00 | 0.00 | 0.00 | 69 | 4099.4 |
| 20260903220742 | 78 | 196 | 0.0 | 1.0 | 0.00 | 0.00 | 0.00 | 68 | 4099.4 |
| 20260903220237 | 78 | 188 | 0.0 | 1.0 | 0.00 | 0.00 | 0.00 | 69 | 4099.4 |
| 20260903215736 | 77 | 187 | 0.0 | 0.0 | 0.00 | 0.00 | 0.00 | 70 | 4099.4 |
| 20260903215232 | 76 | 187 | 0.0 | 0.0 | 0.00 | 0.00 | 0.00 | 72 | 4099.4 |
| 20260903214729 | 76 | 187 | 0.0 | 0.0 | 0.00 | 0.00 | 0.00 | 74 | 4099.4 |
| 20260903214220 | 76 | 187 | 1.0 | 2.0 | 0.00 | 0.00 | 0.00 | 76 | 4099.4 |
| 20260903213714 | 76 | 187 | 2.0 | 2.0 | 0.00 | 0.00 | 0.00 | 68 | 4099.4 |
| 20260903213211 | 76 | 187 | 2.0 | 3.0 | 0.00 | 0.00 | 0.00 | 67 | 4099.4 |
| 20260903212706 | 75 | 187 | 0.0 | 0.0 | 0.00 | 0.00 | 0.00 | 70 | 4099.7 |
| 20260903212203 | 75 | 187 | 0.0 | 0.0 | 0.00 | 0.00 | 0.00 | 71 | 4099.4 |
| 20260903211701 | 74 | 187 | 1.0 | 1.0 | 0.00 | 0.00 | 0.00 | 73 | 4099.4 |
| 20260903211158 | 75 | 187 | 1.0 | 1.0 | 0.00 | 0.00 | 0.00 | 69 | 4099.7 |
| 20260903210654 | 75 | 187 | 1.0 | 1.0 | 0.00 | 0.00 | 0.00 | 74 | 4099.7 |
| 20260903210149 | 74 | 187 | 1.0 | 1.0 | 0.00 | 0.00 | 0.00 | 73 | 4100.0 |
| 20260903205643 | 73 | 187 | 1.0 | 1.0 | 0.00 | 0.00 | 0.00 | 79 | 4100.0 |
| 20260903205142 | 72 | 187 | 2.0 | 2.0 | 0.00 | 0.00 | 0.00 | 85 | 4099.7 |
| 20260903204638 | 73 | 187 | 3.0 | 3.0 | 0.00 | 0.00 | 0.00 | 87 | 4100.0 |
| 20260903204134 | 74 | 187 | 3.0 | 3.0 | 0.00 | 0.00 | 0.00 | 77 | 4100.0 |
| 20260903203629 | 75 | 187 | 3.0 | 3.0 | 0.00 | 0.00 | 0.00 | 67 | 4100.4 |
| 20260903203124 | 75 | 186 | 3.0 | 3.0 | 0.00 | 0.00 | 0.00 | 68 | 4100.4 |
| 20260903202619 | 74 | 189 | 1.0 | 1.0 | 0.00 | 0.00 | 0.00 | 66 | 4100.4 |
| 20260903202114 | 74 | 189 | 1.0 | 1.0 | 0.00 | 0.00 | 0.00 | 77 | 4100.4 |
| 20260903201609 | 73 | 192 | 1.0 | 1.0 | 0.00 | 0.00 | 0.00 | 77 | 4100.4 |
| 20260903201108 | 73 | 189 | 1.0 | 1.0 | 0.00 | 0.00 | 0.00 | 80 | 4100.4 |
| 20260903200603 | 75 | 189 | 2.0 | 2.0 | 0.00 | 0.00 | 0.00 | 77 | 4100.7 |
| 20260903200058 | 76 | 211 | 2.0 | 2.0 | 0.00 | 0.00 | 0.00 | 66 | 4100.4 |
| 20260903195549 | 76 | 189 | 1.0 | 2.0 | 0.00 | 0.00 | 0.00 | 66 | 4100.4 |
| 20260903195044 | 75 | 174 | 3.0 | 3.0 | 0.00 | 0.00 | 0.00 | 68 | 4101.1 |
| 20260903194539 | 75 | 185 | 0.0 | 0.0 | 0.00 | 0.00 | 0.00 | 63 | 4101.1 |
| 20260903194034 | 73 | 185 | 0.0 | 0.0 | 0.00 | 0.00 | 0.00 | 77 | 4101.1 |
| 20260903193531 | 73 | 185 | 0.0 | 0.0 | 0.00 | 0.00 | 0.00 | 81 | 4101.1 |
| 20260903193025 | 73 | 185 | 0.0 | 0.0 | 0.00 | 0.00 | 0.00 | 80 | 4101.4 |
| 20260903192517 | 73 | 184 | 0.0 | 0.0 | 0.00 | 0.00 | 0.00 | 79 | 4101.4 |
| 20260903192016 | 73 | 185 | 1.0 | 1.0 | 0.00 | 0.00 | 0.00 | 84 | 4101.4 |
| 20260903191513 | 73 | 185 | 1.0 | 1.0 | 0.00 | 0.00 | 0.00 | 83 | 4101.4 |
| 20260903191013 | 73 | 185 | 0.0 | 0.0 | 0.00 | 0.00 | 0.00 | 83 | 4101.4 |
| 20260903190507 | 72 | 185 | 0.0 | 0.0 | 0.00 | 0.00 | 0.00 | 84 | 4101.7 |
| 20260903190001 | 72 | 185 | 0.0 | 0.0 | 0.00 | 0.00 | 0.00 | 82 | 4101.7 |
| 20260903185457 | 71 | 185 | 0.0 | 0.0 | 0.00 | 0.00 | 0.00 | 87 | 4101.7 |
| 20260903184956 | 71 | 184 | 0.0 | 0.0 | 0.00 | 0.00 | 0.00 | 84 | 4101.7 |
| 20260903184453 | 71 | 184 | 0.0 | 0.0 | 0.00 | 0.00 | 0.00 | 85 | 4101.7 |
| 20260903183948 | 71 | 184 | 0.0 | 0.0 | 0.00 | 0.00 | 0.00 | 85 | 4101.7 |
| 20260903183442 | 71 | 184 | 0.0 | 0.0 | 0.00 | 0.00 | 0.00 | 85 | 4101.7 |
| 20260903182942 | 71 | 184 | 0.0 | 0.0 | 0.00 | 0.00 | 0.00 | 85 | 4101.7 |
| 20260903182440 | 71 | 184 | 0.0 | 0.0 | 0.00 | 0.00 | 0.00 | 86 | 4101.4 |
| 20260903181936 | 70 | 184 | 0.0 | 0.0 | 0.00 | 0.00 | 0.00 | 90 | 4101.7 |
| 20260903181430 | 70 | 184 | 0.0 | 0.0 | 0.00 | 0.00 | 0.00 | 91 | 4101.7 |
| 20260903180930 | 70 | 184 | 0.0 | 0.0 | 0.00 | 0.00 | 0.00 | 92 | 4101.7 |
| 20260903180425 | 69 | 184 | 0.0 | 0.0 | 0.00 | 0.00 | 0.00 | 92 | 4101.7 |
| 20260903175924 | 69 | 184 | 2.0 | 2.0 | 0.00 | 0.00 | 0.00 | 92 | 4101.7 |
| 20260903175419 | 70 | 185 | 1.0 | 2.0 | 0.00 | 0.00 | 0.00 | 92 | 4101.4 |
| 20260903174913 | 70 | 185 | 1.0 | 1.0 | 0.00 | 0.00 | 0.00 | 91 | 4101.4 |
| 20260903174409 | 69 | 185 | 0.0 | 1.0 | 0.00 | 0.00 | 0.00 | 91 | 4101.4 |
| 20260903173909 | 70 | 183 | 2.0 | 2.0 | 0.00 | 0.00 | 0.00 | 90 | 4101.1 |
| 20260903173403 | 69 | 183 | 2.0 | 2.0 | 0.00 | 0.00 | 0.00 | 92 | 4101.4 |
| 20260903172859 | 69 | 183 | 3.0 | 3.0 | 0.00 | 0.00 | 0.00 | 93 | 4101.1 |
| 20260903172359 | 69 | 207 | 2.0 | 2.0 | 0.00 | 0.00 | 0.00 | 95 | 4101.1 |
| 20260903171855 | 69 | 211 | 3.0 | 3.0 | 0.00 | 0.00 | 0.00 | 93 | 4101.1 |
| 20260903171350 | 68 | 215 | 2.0 | 2.0 | 0.00 | 0.00 | 0.00 | 92 | 4100.7 |
| 20260903170849 | 68 | 217 | 2.0 | 2.0 | 0.00 | 0.00 | 0.00 | 91 | 4100.7 |
| 20260903170344 | 69 | 221 | 3.0 | 3.0 | 0.00 | 0.00 | 0.00 | 92 | 4100.4 |
| 20260903165842 | 69 | 224 | 3.0 | 3.0 | 0.00 | 0.00 | 0.00 | 91 | 4100.4 |
| 20260903165337 | 68 | 226 | 3.0 | 3.0 | 0.00 | 0.00 | 0.00 | 89 | 4100.7 |
| 20260903164832 | 68 | 228 | 4.0 | 5.0 | 0.00 | 0.00 | 0.00 | 90 | 4100.4 |
| 20260903164327 | 68 | 226 | 4.0 | 5.0 | 0.00 | 0.00 | 0.00 | 91 | 4100.4 |
| 20260903163826 | 68 | 222 | 5.0 | 5.0 | 0.00 | 0.00 | 0.00 | 91 | 4100.4 |
| 20260903163323 | 68 | 221 | 4.0 | 5.0 | 0.00 | 0.00 | 0.00 | 92 | 4100.7 |
| 20260903162819 | 68 | 232 | 4.0 | 5.0 | 0.00 | 0.00 | 0.00 | 92 | 4100.7 |
| 20260903162315 | 68 | 218 | 3.0 | 5.0 | 0.00 | 0.00 | 0.00 | 93 | 4100.7 |
| 20260903161811 | 68 | 210 | 3.0 | 3.0 | 0.00 | 0.00 | 0.00 | 93 | 4100.7 |
| 20260903161306 | 67 | 228 | 4.0 | 6.0 | 0.00 | 0.00 | 0.00 | 93 | 4100.7 |
| 20260903160802 | 68 | 230 | 5.0 | 6.0 | 0.00 | 0.00 | 0.00 | 92 | 4100.7 |
| 20260903160301 | 69 | 213 | 3.0 | 3.0 | 0.00 | 0.00 | 0.00 | 91 | 4100.7 |
| 20260903155759 | 68 | 211 | 2.0 | 2.0 | 0.00 | 0.00 | 0.00 | 91 | 4100.7 |
| 20260903155254 | 68 | 218 | 3.0 | 3.0 | 0.00 | 0.00 | 0.00 | 92 | 4100.7 |
| 20260903154749 | 68 | 230 | 5.0 | 6.0 | 0.00 | 0.00 | 0.00 | 92 | 4101.1 |
| 20260903154246 | 67 | 241 | 5.0 | 6.0 | 0.00 | 0.00 | 0.00 | 95 | 4101.1 |
| 20260903153741 | 67 | 232 | 5.0 | 6.0 | 0.00 | 0.00 | 0.00 | 95 | 4100.7 |
| 20260903153237 | 68 | 231 | 5.0 | 6.0 | 0.00 | 0.00 | 0.00 | 94 | 4101.1 |
| 20260903152733 | 68 | 228 | 4.0 | 6.0 | 0.00 | 0.00 | 0.00 | 94 | 4101.1 |
| 20260903152229 | 67 | 214 | 3.0 | 3.0 | 0.00 | 0.00 | 0.00 | 95 | 4101.1 |
| 20260903151728 | 67 | 224 | 4.0 | 5.0 | 0.00 | 0.00 | 0.00 | 95 | 4101.1 |
| 20260903151224 | 67 | 227 | 4.0 | 5.0 | 0.00 | 0.00 | 0.00 | 95 | 4101.1 |
| 20260903150719 | 67 | 229 | 5.0 | 5.0 | 0.00 | 0.00 | 0.00 | 95 | 4101.1 |
| 20260903150213 | 67 | 215 | 3.0 | 3.0 | 0.00 | 0.00 | 0.00 | 97 | 4101.1 |
| 20260903145708 | 67 | 214 | 2.0 | 3.0 | 0.00 | 0.00 | 0.00 | 97 | 4101.1 |
| 20260903145203 | 67 | 228 | 5.0 | 5.0 | 0.00 | 0.00 | 0.00 | 95 | 4101.1 |
| 20260903144702 | 67 | 222 | 4.0 | 5.0 | 0.00 | 0.00 | 0.00 | 95 | 4101.1 |